Simultaneous Nadir Overpasses (SNOs) Predictions

Prediction of SNOs between AQUA and METOP-A Satellite Orbit:

Table of predicted SNOs for the next 14.0 days since TLE Epoch: 11/30/2012
Index Date (AQUA) Time (AQUA) AQUA Lat,Lon Date (METOP-A) Time (METOP-A) METOP-A Lat,Lon Distance(km) Time Diff (sec)
1 12/01/2012 07:40:47 73.36, 59.89 12/01/2012 07:39:38 73.32, 57.99 60.91 69
2 12/01/2012 08:30:22 -73.86,-133.53 12/01/2012 08:30:09 -73.85,-133.45 2.64 13
3 12/01/2012 09:19:51 73.93, 33.95 12/01/2012 09:20:48 73.90, 33.98 3.55 57
4 12/04/2012 03:15:08 73.33, 126.37 12/04/2012 03:14:00 73.28, 124.32 65.60 68
5 12/04/2012 04:04:43 -73.82, -67.04 12/04/2012 04:04:31 -73.82, -67.12 2.43 12
6 12/04/2012 04:54:12 73.89, 100.44 12/04/2012 04:55:09 73.91, 100.43 1.89 57
7 12/06/2012 22:49:29 73.26,-167.07 12/06/2012 22:48:22 73.19,-169.47 77.45 67
8 12/06/2012 23:39:06 -73.85, -0.69 12/06/2012 23:38:51 -73.83, -0.69 1.93 15
9 12/07/2012 00:28:35 73.92, 166.78 12/07/2012 00:29:29 73.92, 166.85 2.34 54
10 12/09/2012 18:23:48 73.09,-100.32 12/09/2012 18:22:43 73.04,-103.39 99.56 65
11 12/09/2012 19:13:28 -73.83, 65.76 12/09/2012 19:13:09 -73.83, 65.73 0.95 19
12 12/09/2012 20:02:57 73.91,-126.78 12/09/2012 20:03:47 73.91,-126.74 1.46 50
13 12/12/2012 14:47:52 -73.82, 132.18 12/12/2012 14:47:27 -73.82, 132.12 1.72 25
14 12/12/2012 15:37:21 73.91, -60.37 12/12/2012 15:38:05 73.90, -60.35 0.93 44




NCC Satellite Simultaneous Nadir Overpasses (SNOs) Prediction Service
